Location: Neuvy Saint Sepulchre
(46.5953°N, 1.8122°E)
Time: 14:53:59
(UTC+01:00)

Envisat - Pass Details

Date: 21 October 2021
Orbit: 764 x 766 km, 98.2° (Epoch: 04 December)

Event Time Altitude Azimuth Distance (km) Brightness Sun altitude
Rises 06:29:04 0° 19° (NNE) 3,244 6.6 -19.5°
Reaches altitude 10° 06:31:31 10° 27° (NNE) 2,313 5.9 -19.1°
Maximum altitude 06:36:20 41° 97° (E) 1,103 4.4 -18.3°
Drops below altitude 10° 06:41:06 10° 168° (SSE) 2,295 5.6 -17.5°
Sets 06:43:31 0° 175° (S) 3,216 6.3 -17.0°
